Waarnemingen

Advertentie
Mijn weer
Skillinge, Zweden (2625): temperatuur & dauwpunt: 20.04.2018 22:00:00 - 26.04.2018 22:00:00 (CEST)Skillinge, Zweden (2625): windsnelheid & windstoten: 20.04.2018 22:00:00 - 26.04.2018 22:00:00 (CEST)Skillinge, Zweden (2625): windrichting: 20.04.2018 22:00:00 - 26.04.2018 22:00:00 (CEST)Skillinge, Zweden (2625): luchtdruk: 20.04.2018 22:00:00 - 26.04.2018 22:00:00 (CEST)Skillinge, Zweden (2625): zicht: 20.04.2018 22:00:00 - 26.04.2018 22:00:00 (CEST)Skillinge, Zweden (2625): neerslag: 20.04.2018 22:00:00 - 26.04.2018 22:00:00 (CEST)
Datum & Tijd tt [°C] td [°C] ff [km/u] ff [kn] fx [km/u] fx [kn] dd ppp [hPa] vv [km] rr [mm]
26.04.2018 22:00:00 6,7 4,7 13 7 32 17 W 1009,9 16 0,0
26.04.2018 21:00:00 6,6 4,6 17 9 34 18 WZW 1009,7 50 0,0
26.04.2018 20:00:00 7,0 4,8 19 11 34 18 WZW 1008,9 50 0,0
26.04.2018 19:00:00 9,2 5,4 21 11 32 17 WZW 1008,7 50 0,0
26.04.2018 18:00:00 9,3 5,3 17 9 45 24 W 1008,8 43 0,1
26.04.2018 17:00:00 7,9 5,7 22 12 45 24 W 1008,9 13 0,0
26.04.2018 16:00:00 9,4 7,0 22 12 47 25 ZW 1007,9 14 0,1
26.04.2018 15:00:00 7,8 5,8 20 11 47 25 WZW 1008,0 5 0,5
26.04.2018 14:00:00 11,6 6,9 29 16 45 24 WZW 1007,4 17 0,0
26.04.2018 13:00:00 11,0 6,9 31 17 45 24 ZW 1007,4 15 0,0
26.04.2018 12:00:00 10,0 6,9 28 15 42 23 WZW 1007,2 21 0,0
26.04.2018 11:00:00 9,3 6,4 30 16 42 23 WZW 1007,0 34 0,0
26.04.2018 10:00:00 9,1 5,8 25 14 37 20 WZW 1006,7 32 0,0
26.04.2018 09:00:00 8,3 6,1 18 10 30 16 WZW 1006,4 43 0,0
26.04.2018 08:00:00 7,8 6,3 16 9 23 13 WZW 1006,0 37 0,0
26.04.2018 07:00:00 6,6 5,4 15 8 22 12 WZW 1005,6 14 0,0
26.04.2018 06:00:00 6,4 5,7 10 6 33 18 W 1005,5 7 0,1
26.04.2018 05:00:00 6,3 5,7 12 7 33 18 WZW 1005,3 7 2,0
26.04.2018 04:00:00 6,1 5,2 23 12 33 18 WZW 1005,3 10 0,0
26.04.2018 03:00:00 6,1 4,9 19 10 32 18 WZW 1005,5 22 0,0
26.04.2018 02:00:00 6,6 4,9 20 11 32 18 WZW 1005,6 43 0,0
26.04.2018 01:00:00 6,8 5,3 19 10 26 14 WZW 1005,6 41 0,0
26.04.2018 00:00:00 6,8 5,3 10 6 16 9 W 1005,6 49 0,0
25.04.2018 23:00:00 6,2 5,0 10 5 30 16 WZW 1005,7 31 0,0
25.04.2018 22:00:00 7,5 5,8 11 6 30 16 W 1005,3 24 1,6
25.04.2018 21:00:00 7,2 5,5 9 5 30 16 W 1004,6 21 0,3
25.04.2018 20:00:00 7,5 5,1 17 9 31 17 WZW 1004,1 42 0,0
25.04.2018 19:00:00 10,7 4,2 20 11 40 21 W 1003,4 48 0,0
25.04.2018 18:00:00 11,1 4,3 26 14 40 21 W 1002,7 44 0,0
25.04.2018 17:00:00 10,8 5,8 20 11 30 16 WNW 1002,2 37 0,0
25.04.2018 16:00:00 9,5 6,2 10 5 23 12 WNW 1001,8 50 0,0
25.04.2018 15:00:00 7,6 5,6 8 4 26 14 NNW 1001,3 49 0,0
25.04.2018 14:00:00 5,9 5,0 13 7 26 14 NNO 1000,5 10 0,1
25.04.2018 13:00:00 5,8 5,4 14 8 21 11 NO 1000,0 5 0,2
25.04.2018 12:00:00 5,3 5,2 15 8 18 10 NO 1000,0 7 0,3
25.04.2018 11:00:00 4,9 4,8 12 6 16 8 NO 1000,5 2,2 2,2
25.04.2018 10:00:00 4,8 4,5 6 4 11 6 NO 1001,1 1,4 1,7
25.04.2018 09:00:00 5,4 5,1 4 2 19 11 Z 1002,1 5 1,1
25.04.2018 08:00:00 5,8 5,2 10 5 23 12 ZZW 1003,0 13 0,3
25.04.2018 07:00:00 6,4 5,4 10 6 27 14 WZW 1003,4 17 0,3
25.04.2018 06:00:00 6,4 5,2 14 8 27 14 WZW 1004,0 11 0,0
25.04.2018 05:00:00 6,8 4,8 13 7 28 15 WZW 1004,7 20 0,0
25.04.2018 04:00:00 6,7 4,7 15 8 29 16 WZW 1005,1 19 0,0
25.04.2018 03:00:00 6,9 4,4 17 9 31 17 WZW 1005,7 21 0,0
25.04.2018 02:00:00 6,7 4,2 16 9 34 19 WZW 1006,4 22 0,0
25.04.2018 01:00:00 7,3 4,3 21 11 34 19 WZW 1006,6 31 0,0
25.04.2018 00:00:00 6,5 4,0 17 9 31 17 WZW 1007,2 31 0,0
24.04.2018 23:00:00 7,0 4,0 16 9 36 20 WZW 1007,0 29 0,0
24.04.2018 22:00:00 8,3 4,3 21 11 42 23 WZW 1007,0 31 0,0
24.04.2018 21:00:00 8,9 4,3 24 13 46 25 WZW 1006,9 38 0,0
24.04.2018 20:00:00 9,4 4,2 28 15 53 29 WZW 1006,4 35 0,0
24.04.2018 19:00:00 10,6 4,3 33 18 66 36 WZW 1005,9 33 0,0
24.04.2018 18:00:00 11,1 4,5 39 21 72 39 WZW 1005,7 31 0,0
24.04.2018 17:00:00 11,3 5,2 44 24 72 39 WZW 1005,5 14 0,0
24.04.2018 16:00:00 10,9 7,4 48 26 66 36 WZW 1005,7 11 0,0
24.04.2018 15:00:00 9,8 7,6 45 24 62 34 WZW 1006,5 11 0,0
24.04.2018 14:00:00 10,2 7,1 38 21 60 33 WZW 1006,6 14 0,0
24.04.2018 13:00:00 10,0 6,7 37 20 58 31 WZW 1007,0 11 0,0
24.04.2018 12:00:00 10,2 6,3 30 16 49 26 ZW 1007,2 19 0,0
24.04.2018 11:00:00 7,4 5,5 26 14 34 18 ZZW 1007,7 17 0,0
24.04.2018 10:00:00 8,5 5,4 19 10 43 23 ZW 1008,4 25 0,0
24.04.2018 09:00:00 8,8 6,2 19 10 43 23 WZW 1008,8 13 0,0
24.04.2018 08:00:00 7,7 5,5 22 12 37 20 WZW 1009,0 16 0,0
24.04.2018 07:00:00 6,9 5,7 18 10 35 19 WZW 1009,1 10 0,0
24.04.2018 06:00:00 6,4 5,2 23 12 35 19 WZW 1009,4 11 0,0
24.04.2018 05:00:00 6,0 5,1 16 9 26 14 WZW 1009,4 10 0,0
24.04.2018 04:00:00 6,6 5,4 16 8 27 14 WZW 1009,4 14 0,0
24.04.2018 03:00:00 7,4 5,5 17 9 27 15 WZW 1009,7 28 0,0
24.04.2018 02:00:00 7,0 4,8 15 8 28 15 WZW 1009,8 44 0,0
24.04.2018 01:00:00 7,5 4,5 19 10 28 15 WZW 1009,8 48 0,0
24.04.2018 00:00:00 7,3 4,3 13 7 19 10 WZW 1009,7 50 0,0
23.04.2018 23:00:00 8,2 4,4 13 7 20 11 WZW 1009,5 50 0,0
23.04.2018 22:00:00 8,5 4,5 14 7 24 13 WZW 1009,3 50 0,0
23.04.2018 21:00:00 9,6 5,0 13 7 40 22 WZW 1009,0 43 0,0
23.04.2018 20:00:00 11,4 5,1 18 10 42 23 WZW 1008,3 34 0,0
23.04.2018 19:00:00 14,4 4,4 27 14 42 23 WZW 1007,9 33 0,0
23.04.2018 18:00:00 13,9 5,3 26 14 51 28 WZW 1007,8 30 0,0
23.04.2018 17:00:00 15,1 6,4 29 15 53 28 WZW 1007,6 36 0,0
23.04.2018 16:00:00 16,9 6,4 29 16 53 28 W 1007,3 40 0,0
23.04.2018 15:00:00 17,0 6,8 21 12 39 21 WNW 1007,2 34 0,0
23.04.2018 14:00:00 17,2 8,9 25 14 37 20 W 1006,7 27 0,0
23.04.2018 13:00:00 17,9 11,2 19 11 42 23 W 1006,1 15 0,0
23.04.2018 12:00:00 15,5 10,9 24 13 42 23 WZW 1005,9 19 0,0
23.04.2018 11:00:00 15,1 10,5 28 15 39 21 WZW 1005,8 17 0,0
23.04.2018 10:00:00 7,7 6,2 11 6 15 8 ZW 1006,2 20 0,0
23.04.2018 09:00:00 7,9 6,0 10 6 23 13 ZW 1006,7 25 0,0
23.04.2018 08:00:00 7,5 5,6 12 7 25 14 ZZW 1007,3 27 0,0
23.04.2018 07:00:00 7,4 5,4 11 6 25 14 ZZW 1007,7 31 -
23.04.2018 06:00:00 5,9 3,7 8 4 26 14 ONO 1007,9 33 0,0
23.04.2018 05:00:00 6,2 3,7 9 5 26 14 O 1009,2 44 0,0
23.04.2018 04:00:00 6,0 3,3 15 8 22 12 NO 1009,9 49 0,0
23.04.2018 03:00:00 6,0 3,2 11 6 18 10 ONO 1011,2 47 0,0
23.04.2018 02:00:00 5,4 3,6 6 4 12 7 ONO 1012,3 15 0,0
23.04.2018 01:00:00 5,3 3,8 7 4 13 7 NO 1012,9 12 0,0
23.04.2018 00:00:00 5,7 4,0 9 5 20 11 ONO 1013,4 16 0,0
22.04.2018 23:00:00 6,5 4,0 9 5 20 11 OZO 1014,0 41 0,0
22.04.2018 22:00:00 6,3 4,1 11 6 16 9 O 1014,1 27 0,0
22.04.2018 21:00:00 6,4 4,2 6 4 10 5 ONO 1014,2 19 0,0
22.04.2018 20:00:00 6,6 3,7 3 2 9 5 O 1014,4 30 0,0
22.04.2018 19:00:00 7,8 4,9 3 2 14 8 ZZO 1014,4 20 0,0
22.04.2018 18:00:00 8,4 5,3 4 2 17 9 ZZO 1015,0 17 0,0
22.04.2018 17:00:00 8,3 5,6 10 5 18 10 ZZW 1015,3 16 0,0
22.04.2018 16:00:00 8,9 5,8 11 6 23 12 ZZW 1015,8 19 0,0
22.04.2018 15:00:00 9,0 6,1 14 8 23 12 ZZW 1016,2 22 0,0
22.04.2018 14:00:00 9,0 5,9 9 5 18 10 Z 1016,6 21 0,0
22.04.2018 13:00:00 7,1 5,4 14 8 21 11 NO 1016,9 14 0,0
22.04.2018 12:00:00 6,7 5,0 16 8 21 11 NO 1017,0 13 0,0
22.04.2018 11:00:00 14,1 3,3 7 4 21 12 WNW 1017,0 47 0,0
22.04.2018 10:00:00 12,8 4,7 10 6 19 11 W 1017,0 45 0,0
22.04.2018 09:00:00 10,8 5,1 14 8 19 11 W 1016,9 37 0,0
22.04.2018 08:00:00 9,0 5,4 11 6 16 9 W 1017,1 28 0,0
22.04.2018 07:00:00 5,2 4,0 2 1 8 5 WZW 1017,3 29 0,0
22.04.2018 06:00:00 3,6 2,0 5 3 9 5 WNW 1017,3 38 0,0
22.04.2018 05:00:00 2,9 1,4 6 3 9 5 W 1017,5 42 0,0
22.04.2018 04:00:00 3,0 1,4 5 3 9 5 W 1017,8 44 0,0
22.04.2018 03:00:00 3,7 1,7 0 0 11 6 N 1017,8 47 0,0
22.04.2018 02:00:00 6,2 2,8 9 5 11 6 W 1017,8 50 0,0
22.04.2018 01:00:00 6,1 2,9 7 4 13 7 W 1017,9 50 0,0
22.04.2018 00:00:00 7,3 3,3 8 4 15 8 W 1017,8 50 0,0
21.04.2018 23:00:00 8,1 3,7 10 6 15 8 W 1017,8 50 0,0
21.04.2018 22:00:00 9,3 4,1 9 5 23 12 W 1018,0 50 0,0
21.04.2018 21:00:00 11,1 3,9 10 6 35 19 W 1017,9 50 0,0
21.04.2018 20:00:00 12,7 4,1 13 7 37 20 WNW 1017,6 48 0,0
21.04.2018 19:00:00 14,6 3,1 23 12 39 21 WNW 1017,6 50 0,0
21.04.2018 18:00:00 15,4 1,9 25 14 39 21 NW 1017,6 45 0,0
21.04.2018 17:00:00 16,1 1,8 27 15 39 21 WNW 1017,8 37 0,0
21.04.2018 16:00:00 16,6 2,2 27 15 39 21 WNW 1017,7 41 0,0
21.04.2018 15:00:00 17,3 3,9 23 13 40 22 WNW 1017,5 38 0,0
21.04.2018 14:00:00 17,1 2,7 29 16 40 22 WNW 1017,4 40 0,0
21.04.2018 13:00:00 16,8 4,1 25 13 40 22 W 1017,3 37 0,0
21.04.2018 12:00:00 16,2 3,9 25 13 40 22 W 1017,4 33 0,0
21.04.2018 11:00:00 15,1 3,6 26 14 40 22 WNW 1017,3 35 0,0
21.04.2018 10:00:00 14,0 4,3 26 14 35 19 WNW 1016,9 43 0,0
21.04.2018 09:00:00 12,7 5,6 21 11 32 17 WNW 1016,6 31 0,0
21.04.2018 08:00:00 - - - - - - - - - -
21.04.2018 07:00:00 9,7 6,4 13 7 19 11 W 1015,9 11 0,0
21.04.2018 06:00:00 8,7 6,1 10 5 21 11 W 1015,4 9 0,0
21.04.2018 05:00:00 9,6 6,9 12 6 26 14 W 1015,1 9 0,0
21.04.2018 04:00:00 11,1 7,6 14 8 30 16 W 1014,8 9 0,0
21.04.2018 03:00:00 12,4 8,1 18 10 32 17 WNW 1014,5 9 0,0
21.04.2018 02:00:00 13,0 8,5 18 10 32 17 W 1014,3 7 0,0
21.04.2018 01:00:00 14,4 8,3 19 10 29 16 WNW 1014,2 10 0,0
21.04.2018 00:00:00 15,4 9,3 18 10 28 15 WNW 1013,9 9 0,0
20.04.2018 23:00:00 13,2 8,9 13 7 26 14 W 1014,0 6 0,0
20.04.2018 22:00:00 13,8 8,8 15 8 26 14 W 1014,4 8 0,0

tt = temperatuur
td = dauwpunt
ff = windsnelheid
fx = windstoten
dd = windrichting
ppp = luchtdruk
vv = zicht
rr = neerslag

Weerstations in de omgeving